Weather History for West Palm Beach, FL

Change the Weather History Date:

Wednesday, April 24, 2013

  Actual Average Record
Temperature  
Mean Temperature 25 °C 24 °C  
Max Temperature 27 °C 28 °C 35 °C (1988)
Min Temperature 22 °C 19 °C 11 °C (2012)
Degree Days  
Heating Degree Days 0 0  
Month to date heating degree days 0 0  
Since 1 July heating degree days 164 229  
Cooling Degree Days 12 10  
Month to date cooling degree days 284 203  
Year to date cooling degree days 755 631  
Growing Degree Days 26 (Base 50)    
Moisture  
Dew Point 16 °C    
Average Humidity 58    
Maximum Humidity 64    
Minimum Humidity 51    
Precipitation  
Precipitation 0.00 mm 2.79 mm 9.22 mm (1982)
Month to date precipitation 3.92 3.05  
Year to date precipitation 8.08 13.59  
Snow  
Snow 0.00 cm - - ()
Month to date snowfall 0.0  
Since 1 July snowfall 0.0  
Snow Depth 0.00 cm    
Sea Level Pressure  
Sea Level Pressure 1019 hPa    
Wind  
Wind Speed 16 km/h (East)    
Max Wind Speed 26 km/h    
Max Gust Speed 35 km/h    
Visibility 16 kilometers    
Events      
T = Trace of Precipitation, MM = Missing Value Source: NWS Daily Summary

Daily Weather History Graph

Daily Weather History Graph

Search for Another Location

Airport:

Trip Planner

Search our weather history database for the weather conditions in past years. The results will help you decide how hot, cold, wet, or windy it might be!

Date:

Astronomy

Apr. 24, 2013 Rise Set
Actual Time 6:48 AM EDT 7:49 PM EDT
Civil Twilight 6:23 AM EDT 8:13 PM EDT
Nautical Twilight 5:55 AM EDT 8:42 PM EDT
Astronomical Twilight 5:26 AM EDT 9:11 PM EDT
Moon 6:53 PM EDT (4/24) 5:44 AM EDT (4/24)
Length of Visible Light 13h 49m
Length of Day
13h 01m
Waxing Gibbous, 98% of the Moon is Illuminated
Apr 24
Waxing Gibbous
Apr 25
Full
May 2
Last Quarter
May 9
New
May 18
First Quarter

Hourly Weather History & Observations

Time (EDT) Temp. Heat Index Dew Point Humidity Pressure Visibility Wind Dir Wind Speed Gust Speed Precip Events Conditions
12:53 AM 23.3 °C - 13.9 °C 55% 1018.8 hPa 16.1 km NE 16.7 km/h / 4.6 m/s - N/A   Scattered Clouds
1:53 AM 22.8 °C - 14.4 °C 59% 1018.2 hPa 16.1 km ENE 14.8 km/h / 4.1 m/s - N/A   Partly Cloudy
2:53 AM 22.8 °C - 14.4 °C 59% 1017.4 hPa 16.1 km ENE 20.4 km/h / 5.7 m/s - N/A   Partly Cloudy
3:53 AM 22.8 °C - 13.9 °C 57% 1017.1 hPa 16.1 km East 14.8 km/h / 4.1 m/s - N/A   Partly Cloudy
4:53 AM 22.8 °C - 15.6 °C 64% 1017.3 hPa 16.1 km East 13.0 km/h / 3.6 m/s - N/A   Partly Cloudy
5:53 AM 23.3 °C - 15.6 °C 62% 1017.8 hPa 16.1 km ENE 11.1 km/h / 3.1 m/s - N/A   Scattered Clouds
6:53 AM 23.3 °C - 16.1 °C 64% 1018.4 hPa 16.1 km East 14.8 km/h / 4.1 m/s - N/A   Mostly Cloudy
7:53 AM 23.9 °C - 15.0 °C 57% 1019.1 hPa 16.1 km NE 11.1 km/h / 3.1 m/s - N/A   Mostly Cloudy
8:53 AM 25.0 °C - 15.6 °C 56% 1019.5 hPa 16.1 km ENE 16.7 km/h / 4.6 m/s - N/A   Scattered Clouds
9:53 AM 25.6 °C - 16.7 °C 58% 1019.9 hPa 16.1 km East 16.7 km/h / 4.6 m/s - N/A   Mostly Cloudy
10:53 AM 26.1 °C - 16.1 °C 54% 1020.3 hPa 16.1 km East 22.2 km/h / 6.2 m/s - N/A   Scattered Clouds
11:53 AM 26.7 °C 27.1 °C 15.6 °C 50% 1020.0 hPa 16.1 km East 20.4 km/h / 5.7 m/s - N/A   Scattered Clouds
12:53 PM 26.7 °C 27.3 °C 16.1 °C 52% 1019.5 hPa 16.1 km ESE 18.5 km/h / 5.1 m/s 29.6 km/h / 8.2 m/s N/A   Mostly Cloudy
1:53 PM 26.1 °C - 16.1 °C 54% 1019.3 hPa 16.1 km East 18.5 km/h / 5.1 m/s - N/A   Mostly Cloudy
2:53 PM 26.7 °C 27.3 °C 16.1 °C 52% 1019.0 hPa 16.1 km ENE 20.4 km/h / 5.7 m/s - N/A   Mostly Cloudy
3:53 PM 26.1 °C - 16.1 °C 54% 1018.6 hPa 16.1 km East 13.0 km/h / 3.6 m/s - N/A   Scattered Clouds
4:53 PM 26.1 °C - 16.7 °C 56% 1018.5 hPa 16.1 km East 18.5 km/h / 5.1 m/s 25.9 km/h / 7.2 m/s N/A   Scattered Clouds
5:53 PM 26.1 °C - 15.6 °C 52% 1018.7 hPa 16.1 km ESE 16.7 km/h / 4.6 m/s - N/A   Scattered Clouds
6:53 PM 25.6 °C - 16.1 °C 56% 1018.9 hPa 16.1 km East 14.8 km/h / 4.1 m/s - N/A   Scattered Clouds
7:53 PM 25.0 °C - 16.7 °C 60% 1019.4 hPa 16.1 km East 16.7 km/h / 4.6 m/s - N/A   Scattered Clouds
8:53 PM 24.4 °C - 16.1 °C 60% 1019.9 hPa 16.1 km ENE 13.0 km/h / 3.6 m/s - N/A   Scattered Clouds
9:53 PM 24.4 °C - 16.1 °C 60% 1020.2 hPa 16.1 km East 14.8 km/h / 4.1 m/s - N/A   Scattered Clouds
10:53 PM 24.4 °C - 15.6 °C 58% 1020.6 hPa 16.1 km ENE 14.8 km/h / 4.1 m/s - N/A   Scattered Clouds
11:53 PM 23.9 °C - 16.1 °C 62% 1020.3 hPa 16.1 km ENE 18.5 km/h / 5.1 m/s - N/A   Mostly Cloudy